Preview of NWS' New Version of Forecast
This preview is not operational and should not be used for support decisions.

Regional Weather Roundup (RWR)

Issued by National Weather Service (NWS)

                            
000
ASUS44 KMEG 220400
RWRTN 
TENNESSEE HOURLY STATE WEATHER ROUNDUP
NATIONAL WEATHER SERVICE MEMPHIS TN
1100 PM CDT TUE MAY 21 2019

TNZ002-004-019-021-049-052-054-088>092-220500-
WEST TENNESSEE
  
CITY           SKY/WX    TMP DP  RH WIND       PRES   REMARKS
MEMPHIS INTL   MOCLDY    82  66  58 S18G25    29.78R                  
NWS MEMPHIS      N/A     81 N/A N/A MISG        N/A                   
JACKSON        FAIR      79  67  66 S12G20    29.82R                  
DYERSBURG      MOCLDY    80  69  69 S9G16     29.79R                  
$$

TNZ008-025-027-028-033-062-065-066-220500-
NORTH MIDDLE TENNESSEE
  
CITY           SKY/WX    TMP DP  RH WIND       PRES   REMARKS
NASHVILLE      FAIR      79  63  57 SE12      29.88F                  
CLARKSVILLE    FAIR      77  62  59 S5        29.85R                  
SMYRNA         FAIR      73  65  75 SE7       29.90S                  
CROSSVILLE     FAIR      70  58  65 SE3       30.02R                  
$$

TNZ061-075-076-078-094-096-097-220500-
SOUTH MIDDLE TENNESSEE
  
CITY           SKY/WX    TMP DP  RH WIND       PRES   REMARKS
$$

TNZ017-018-042-046-047-220500-
NORTHEAST TENNESSEE
  
CITY           SKY/WX    TMP DP  RH WIND       PRES   REMARKS
TRI CITIES     FAIR      63  52  67 CALM      30.05R                  
$$

TNZ012-013-036-069-073-074-220500-
CENTRAL EAST TENNESSEE
  
CITY           SKY/WX    TMP DP  RH WIND       PRES   REMARKS
KNOXVILLE      FAIR      71  58  63 E5        29.98R                  
OAK RIDGE      FAIR      69  60  73 CALM      30.00R                  
$$

TNZ083-085-099-220500-
SOUTHEAST TENNESSEE
  
CITY           SKY/WX    TMP DP  RH WIND       PRES   REMARKS
CHATTANOOGA    FAIR      73  68  84 CALM      29.96R                  
$$

SKY/WX REPORTED AS FAIR MEANS FEW OR NO CLOUDS BELOW
12 THOUSAND FEET.